This is the latest recevied weather packets stored in our database for station/object N9EA. If no packets are shown the sender has not sent any weather packets the latest 10 day(s).
| Time | Temp. | Humidity | Pressure | Rain* | Wind** | Luminosity | Snow |
|---|---|---|---|---|---|---|---|
| 1778112326 | 11.67° C | 39% | 1014.9 hPa | 0 mm | - | 59 W/m² | - |
| 1778112017 | 12.22° C | 38% | 1014.8 hPa | 0 mm | - | 47 W/m² | - |
| 1778111714 | 11.67° C | 37% | 1014.8 hPa | 0 mm | - | 67 W/m² | - |
| 1778111410 | 11.67° C | 38% | 1014.7 hPa | 0 mm | - | 67 W/m² | - |
| 1778111108 | 11.67° C | 38% | 1014.7 hPa | 0 mm | - | 54 W/m² | - |
| 1778110805 | 12.22° C | 37% | 1014.8 hPa | 0 mm | - | 52 W/m² | - |
| 1778110501 | 12.78° C | 35% | 1014.8 hPa | 0 mm | - | 45 W/m² | - |
| 1778110197 | 12.78° C | 36% | 1014.8 hPa | 0 mm | - | 120 W/m² | - |
| 1778109894 | 12.78° C | 37% | 1014.7 hPa | 0 mm | - | 140 W/m² | - |
| 1778109590 | 13.33° C | 35% | 1015.1 hPa | 0 mm | - | 97 W/m² | - |
| 1778109288 | 13.33° C | 36% | 1014.8 hPa | 0 mm | - | 160 W/m² | - |
| 1778108985 | 12.78° C | 36% | 1014.8 hPa | 0 mm | - | 219 W/m² | - |
| 1778108681 | 12.78° C | 37% | 1014.8 hPa | 0 mm | - | 119 W/m² | - |
| 1778108378 | 13.89° C | 34% | 1014.6 hPa | 0 mm | - | 96 W/m² | - |
| 1778108075 | 13.89° C | 34% | 1014.8 hPa | 0 mm | - | 227 W/m² | - |
| 1778107772 | 13.33° C | 35% | 1014.8 hPa | 0 mm | - | 271 W/m² | - |
| 1778107469 | 12.22° C | 36% | 1014.9 hPa | 0 mm | - | 270 W/m² | - |
| 1778107166 | 12.22° C | 37% | 1015 hPa | 0 mm | - | 71 W/m² | - |
| 1778106861 | 12.78° C | 36% | 1015 hPa | 0 mm | - | 71 W/m² | - |
| 1778106559 | 13.33° C | 35% | 1015.2 hPa | 0 mm | - | 87 W/m² | - |
| 1778106255 | 12.78° C | 36% | 1015.1 hPa | 0 mm | - | 337 W/m² | - |
| 1778105952 | 12.78° C | 37% | 1014.9 hPa | 0 mm | - | 133 W/m² | - |
| 1778105649 | 12.78° C | 37% | 1014.8 hPa | 0 mm | - | 122 W/m² | - |
| 1778105347 | 12.22° C | 37% | 1015.1 hPa | 0 mm | - | 116 W/m² | - |
| 1778105042 | 12.78° C | 37% | 1014.9 hPa | 0 mm | - | 118 W/m² | - |
* Rain latest hour (hover to see other rain measurements)
** Current wind speed in m/s (hover to see current wind gust speed)